Location: Newark
(40.3500°N, 15.2333°E)
Time: 06:30:53
(UTC+00:00)

Altair - Pass Details

Date: 26 January 2020
Orbit: 1502 x 1682 km, 47.2° (Epoch: 19 February)

Event Time Altitude Azimuth Distance (km) Brightness Sun altitude
Rises 11:32:43 0° 291° (WNW) 4,934 10.0 30.7°
Reaches altitude 10° 11:35:57 10° 294° (WNW) 3,948 9.6 30.6°
Maximum altitude 11:46:07 68° 17° (NNE) 1,774 8.1 30.3°
Drops below altitude 10° 11:56:04 10° 100° (E) 3,875 9.7 30.0°
Sets 11:59:12 0° 103° (ESE) 4,839 10.1 29.8°
